sat.trackr.live / text

‹ back to catalog

STARLINK-11084 [DTC]

NORAD 59717 · 2024-088K

PAYLOAD ACTIVE UNKNOWN

§ Identity

Operator
Country
US
Launch date
2024-05-10
Launch site
AFWTR
Launch vehicle
Mass (kg)
RCS (m²)

Purposes: comms

External: N2YO · Heavens-Above · Gunter

§ Orbital elements

Epoch: 2026-09-21T17:22:17.939136Z

Period
91.74 min
Inclination
53.1588°
Eccentricity
0.0000873
Mean motion
15.69708549 rev/d
Perigee alt
359.1 km
Apogee alt
360.3 km
Semi-major
6,737.9 km
B*
4.7397e-6
RAAN
79.7422°
Arg perigee
71.4365°
Mean anomaly
288.6747°
Rev number
13,706

§ Raw data

STARLINK-11084 [DTC]1 59717U 24088K   26264.72381874 -.00000014  00000+0  47397-5 0  99912 59717  53.1588  79.7422 0000873  71.4365 288.6747 15.69708549137069

JSON: /api/v1/satellites/59717 · /tle

For live sub-satellite position, see the globe view (requires WebGL).

§ Visibility from observer

Set your observer location to see the next 7 days of passes ≥ 10°. The values pass through the URL so the page stays shareable.

No JS? Fill the form by hand. The geolocation button needs JavaScript.